Simultaneous Nadir Overpasses (SNOs) Predictions

Prediction of SNOs between AQUA and NOAA-19 Satellite Orbit:

Table of predicted SNOs for the next 14.0 days since TLE Epoch: 11/10/2018
Index Date (AQUA) Time (AQUA) Lat,Lon (AQUA) SZA (AQUA ) Date (NOAA-19) Time (NOAA-19) Lat,Lon (NOAA-19) SZA (NOAA-19 ) Distance(km) Time Diff (sec)
1 11/11/2018 10:42:55 80.65, -17.44 99.49 11/11/2018 10:42:12 80.65, -17.56 99.53 2.37 43
2 11/11/2018 11:32:23 -80.68, 149.85 80.45 11/11/2018 11:33:12 -80.66, 150.00 80.49 3.00 49
3 11/13/2018 16:16:38 -80.64, 79.22 79.92 11/13/2018 16:15:43 -80.65, 79.18 79.88 1.96 55
4 11/13/2018 17:06:05 80.67,-113.45 100.14 11/13/2018 17:06:43 80.66,-113.33 100.12 2.18 38
5 11/15/2018 21:50:21 80.66, 175.56 100.70 11/15/2018 21:49:15 80.65, 175.67 100.71 2.42 66
6 11/15/2018 22:39:48 -80.66, -16.80 79.30 11/15/2018 22:40:14 -80.66, -16.80 79.30 0.19 26
7 11/18/2018 04:13:30 80.65, 79.84 101.25 11/18/2018 04:13:46 80.66, 79.87 101.25 0.64 16
8 11/20/2018 09:47:13 -80.65, 176.46 78.23 11/20/2018 09:47:16 -80.65, 176.34 78.22 2.11 3




NCC Satellite Simultaneous Nadir Overpasses (SNOs) Prediction Service
